Location: La Pernelle
(49.6188°N, 1.2999°W)
Time: 17:41:12
(UTC+00:00)

SL-16 R/B - Pass Details

Date: 28 October 2021
Orbit: 842 x 846 km, 71.0° (Epoch: 28 November)

Event Time Altitude Azimuth Distance (km) Brightness Sun altitude
Rises 20:25:49 0° 280° (W) 3,406 6.3 -35.1°
Reaches altitude 10° 20:29:53 10° 308° (NW) 2,475 5.4 -35.7°
Maximum altitude 20:32:20 13° 334° (NNW) 2,283 4.9 -36.1°
Drops below altitude 10° 20:34:48 10° 360° (N) 2,479 4.8 -36.4°
Enters shadow 20:35:37 - 7° (N) 2,619 4.9 -36.6°
